Simultaneous Nadir Overpasses (SNOs) Predictions

Prediction of SNOs between NOAA-15 and METOP-C Satellite Orbit:

Table of predicted SNOs for the next 14.0 days since TLE Epoch: 5/4/2024
Index Date (NOAA-15) Time (NOAA-15) Lat,Lon (NOAA-15) SZA (NOAA-15 ) Date (METOP-C) Time (METOP-C) Lat,Lon (METOP-C) SZA (METOP-C ) Distance(km) Time Diff (sec)
1 05/15/2024 11:59:26 81.05, 38.54 64.10 05/15/2024 11:58:18 81.05, 38.68 64.09 2.47 68
2 05/15/2024 12:49:58 -81.05,-154.17 115.92 05/15/2024 12:48:59 -81.04,-154.24 115.96 1.91 59
3 05/15/2024 13:40:26 81.05, 13.28 64.08 05/15/2024 13:39:40 81.04, 13.19 64.05 1.76 46
4 05/15/2024 14:30:58 -81.05,-179.42 115.93 05/15/2024 14:30:20 -81.05,-179.36 115.95 1.16 38
5 05/15/2024 15:21:26 81.05, -11.97 64.07 05/15/2024 15:21:01 81.05, -11.93 64.06 0.76 25
6 05/15/2024 16:11:58 -81.05, 155.33 115.95 05/15/2024 16:11:41 -81.06, 155.52 115.94 3.31 17
7 05/15/2024 17:02:26 81.05, -37.23 64.05 05/15/2024 17:02:22 81.06, -37.05 64.07 3.28 4
8 05/15/2024 17:52:58 -81.05, 130.08 115.97 05/15/2024 17:53:03 -81.05, 130.03 115.97 0.90 5
9 05/15/2024 18:43:26 81.05, -62.49 64.03 05/15/2024 18:43:44 81.06, -62.54 64.04 1.08 18
10 05/15/2024 19:33:58 -81.05, 104.83 115.98 05/15/2024 19:34:24 -81.06, 104.91 115.96 1.55 26
11 05/15/2024 20:24:26 81.05, -87.74 64.02 05/15/2024 20:25:05 81.06, -87.66 64.05 1.89 39
12 05/15/2024 21:14:58 -81.05, 79.58 116.00 05/15/2024 21:15:46 -81.05, 79.42 115.99 2.76 48
13 05/15/2024 22:05:26 81.05,-113.00 64.00 05/15/2024 22:06:27 81.06,-113.16 64.02 2.80 61



Historial Predications of SNOs between NOAA-15 and METOP-C
